Weather History for Dallas Redbird, TX

Change the Weather History Date:

Sunday, May 5, 2013

  Actual Average Record
Temperature  
Mean Temperature 56 °F -  
Max Temperature 70 °F 79 °F 91 °F (2012)
Min Temperature 44 °F 60 °F 44 °F (2013)
Degree Days  
Heating Degree Days 8    
Growing Degree Days 6 (Base 50)    
Moisture  
Dew Point 41 °F    
Average Humidity 55    
Maximum Humidity 76    
Minimum Humidity 39    
Precipitation  
Precipitation 0.00 in - - ()
Sea Level Pressure  
Sea Level Pressure 30.07 in    
Wind  
Wind Speed 8 mph (North)    
Max Wind Speed 14 mph    
Max Gust Speed 20 mph    
Visibility 10 miles    
Events      
Averages and records for this station are not official NWS values.
T = Trace of Precipitation, MM = Missing Value Source: NWS Daily Summary

Daily Weather History Graph

Daily Weather History Graph

Search for Another Location

Airport:

Trip Planner

Search our weather history database for the weather conditions in past years. The results will help you decide how hot, cold, wet, or windy it might be!

Date:

Astronomy

May. 05, 2013 Rise Set
Actual Time 6:36 AM CDT 8:12 PM CDT
Civil Twilight 6:10 AM CDT 8:38 PM CDT
Nautical Twilight 5:38 AM CDT 9:10 PM CDT
Astronomical Twilight 5:04 AM CDT 9:44 PM CDT
Moon 3:53 AM CDT (5/5) 4:25 PM CDT (5/5)
Length of Visible Light 14h 28m
Length of Day
13h 35m
Waning Crescent, 18% of the Moon is Illuminated
May 5
Waning Crescent
May 9
New
May 17
First Quarter
May 24
Full
May 31
Last Quarter

Hourly Weather History & Observations

Time (CDT) Temp. Windchill Dew Point Humidity Pressure Visibility Wind Dir Wind Speed Gust Speed Precip Events Conditions
12:53 AM 53.1 °F - 37.9 °F 57% 30.03 in 10.0 mi North 8.1 mph - N/A   Clear
1:53 AM 52.0 °F - 37.9 °F 59% 30.03 in 10.0 mi North 10.4 mph - N/A   Clear
2:53 AM 50.0 °F - 37.0 °F 61% 30.02 in 10.0 mi North 6.9 mph - N/A   Clear
3:53 AM 48.9 °F - 37.0 °F 64% 30.03 in 10.0 mi North 6.9 mph - N/A   Clear
4:53 AM 46.9 °F - 37.0 °F 68% 30.04 in 10.0 mi North 5.8 mph - N/A   Clear
5:53 AM 46.9 °F - 37.9 °F 71% 30.07 in 10.0 mi North 8.1 mph - N/A   Clear
6:53 AM 44.1 °F 40.1 °F 37.0 °F 76% 30.09 in 10.0 mi NNW 6.9 mph - N/A   Clear
7:53 AM 50.0 °F - 39.0 °F 66% 30.11 in 10.0 mi NNW 6.9 mph - N/A   Clear
8:53 AM 54.0 °F - 37.9 °F 55% 30.13 in 10.0 mi North 9.2 mph - N/A   Clear
9:53 AM 57.0 °F - 37.0 °F 47% 30.14 in 10.0 mi North 13.8 mph - N/A   Clear
10:53 AM 57.9 °F - 37.9 °F 47% 30.15 in 10.0 mi North 10.4 mph 19.6 mph N/A   Partly Cloudy
11:53 AM 61.0 °F - 39.9 °F 46% 30.15 in 10.0 mi NNW 10.4 mph 16.1 mph N/A   Mostly Cloudy
1:53 PM 66.0 °F - 42.1 °F 42% 30.11 in 10.0 mi NNW 9.2 mph 18.4 mph N/A   Partly Cloudy
2:53 PM 66.9 °F - 43.0 °F 42% 30.09 in 10.0 mi NNW 6.9 mph 18.4 mph N/A   Clear
3:53 PM 69.1 °F - 43.0 °F 39% 30.06 in 10.0 mi NNW 9.2 mph - N/A   Clear
4:53 PM 69.1 °F - 44.1 °F 40% 30.04 in 10.0 mi North 11.5 mph 18.4 mph N/A   Clear
5:53 PM 69.1 °F - 44.1 °F 40% 30.04 in 10.0 mi NNW 10.4 mph - N/A   Clear
7:53 PM 64.9 °F - 44.1 °F 47% 30.04 in 10.0 mi North 6.9 mph - N/A   Clear
8:53 PM 63.0 °F - 44.1 °F 50% 30.05 in 10.0 mi NNE 3.5 mph - N/A   Clear
9:53 PM 61.0 °F - 45.0 °F 56% 30.06 in 10.0 mi ENE 5.8 mph - N/A   Clear
10:53 PM 59.0 °F - 45.0 °F 60% 30.07 in 10.0 mi ENE 5.8 mph - N/A   Clear
11:53 PM 55.9 °F - 45.0 °F 67% 30.08 in 10.0 mi NNE 3.5 mph - N/A   Clear